www.pogodaiklimat.ru

Погода и климат >> Архив погоды >> Маврикий >> Сент-Брендон


ПОГОДА в Сент-Брендоне

  • Прогноз погоды в Сент-Брендоне
  • Монитор погоды в Сент-Брендоне

АРХИВ ПОГОДЫ в Сент-Брендоне

Время (UTC), дата Ветер
(напр.,м/с)
 
Видим.   Явления Облачность Т
(С)
Тd
(С)
f
(%)
Тe
(С)
Тes
(С)
Комфортность P
(гПа)
Po
(гПа)
Тmin
(С)
Tmax
(С)
R
(мм)
R24
(мм)
S
(см)
18 13.09 В 5 20 км 3/3 540 м
[Cu Sc]
+24.2 +18.1 69 +29 +29 душно 1019.5 1019.0 +27.9
00 14.09 В 6 20 км 9/9 540 м
[Cu Sc]
+23.9 +19.6 77 +29 +29 душно 1017.8 1017.3
03 14.09 В 5 12 км в посл. час ливневой дождь 8/8 450 м
[Cu Sc]
+23.7 +20.5 82 +29 +30 душно 1018.9 1018.4 2
06 14.09 ЮВ 6 10 км осадки на расстоянии {ливн. осадки} 9/9 450 м
[Cu Sc]
+25.1 +21.4 80 +32 +32 очень
душно
1020.1 1019.6 +22.7 2
09 14.09 В 6 10 км в посл. час ливневой дождь 9/9 450 м
[Cu Sc]
+24.3 +21.1 82 +31 +31 очень
душно
1018.2 1017.7 0.0
12 14.09 СВ 8 10 км осадки на расстоянии {ливн. осадки} 9/9 450 м
[Cu Sc]
+24.5 +20.3 77 +30 +30 очень
душно
1017.1 1016.6 0.2
15 14.09 В 7 15 км осадки на расстоянии 6/6 480 м
[Cu Sc]
+24.5 +20.6 79 +30 +30 очень
душно
1017.9 1017.4
18 14.09 В 6 20 км 6/6 540 м
[Cu Sc]
+24.1 +20.3 79 +30 +30 очень
душно
1019.3 1018.8 +27.7 0.2
00 15.09 В 3 20 км 6/6 500 м
[Cu Sc]
+24.2 +20.5 80 +29 +29 душно 1017.4 1016.9
03 15.09 В 5 25 км в посл. час ливневой дождь 9/9 480 м
[Cu Sc]
+24.1 +20.9 82 +30 +30 очень
душно
1018.0 1017.5 0.0
06 15.09 В 6 15 км осадки на расстоянии {ливн. осадки} 8/8 480 м
[Cu Sc]
+27.5 +20.1 64 +34 +35 очень
душно
1019.0 1018.5 +23.2 0.2
09 15.09 В 5 25 км 9/9 540 м
[Cu Sc]
+28.5 +20.8 63 +36 +37 очень
душно
1017.7 1017.2
12 15.09 ЮВ 4 12 км осадки на расстоянии 8/8 480 м
[Cu Sc]
+25.4 +20.9 76 +32 +33 очень
душно
1016.7 1016.2
15 15.09 В 4 20 км 6/6 540 м
[Cu Sc]
+25.0 +20.2 75 +31 +31 очень
душно
1017.4 1016.9
18 15.09 ЮВ 4 20 км 9/9 540 м
[Cu Sc]
+24.9 +20.7 78 +31 +31 очень
душно
1018.2 1017.7 +29.0
00 16.09 В 5 20 км 4/4 540 м
[Cu Sc]
+24.2 +19.9 77 +30 +30 очень
душно
1015.9 1015.4
03 16.09 В 5 25 км 6/6 540 м
[Cu Sc]
+24.6 +21.0 80 +31 +31 очень
душно
1016.5 1016.0
06 16.09 В 6 18 км осадки на расстоянии 6/6 500 м
[Cu Sc]
+27.6 +22.0 72 +36 +38 очень
душно
1017.3 1016.8 +23.9
09 16.09 В 5 8000 м в посл. час ливневой дождь 10/10 450 м
[Cu Sc]
+23.8 +21.7 88 +30 +30 очень
душно
1016.3 1015.8 2
12 16.09 ЮВ 6 15 км осадки на расстоянии {ливн. осадки} 9/9 450 м
[Cu Sc]
+24.6 +20.7 79 +31 +31 очень
душно
1014.8 1014.3 2
15 16.09 ЮВ 5 15 км осадки на расстоянии 6/6 480 м
[Cu Sc]
+24.9 +20.1 75 +31 +31 очень
душно
1015.6 1015.1
18 16.09 В 5 20 км 9/9 540 м
[Cu Sc]
+24.2 +19.7 76 +29 +29 душно 1016.5 1016.0 +27.7 2
00 17.09 ЮВ 5 20 км 9/9 540 м
[Cu Sc]
+24.1 +19.5 75 +29 +29 душно 1015.5 1015.0
03 17.09 ЮВ 5 25 км 5/5 540 м
[Cu Sc]
+24.1 +20.3 79 +30 +30 очень
душно
1016.1 1015.6
06 17.09 ЮВ 4 25 км 1/1 570 м
[Cu Sc]
+25.9 +20.1 70 +32 +41 очень
душно
1016.7 1016.2 +22.1 2
09 17.09 ЮВ 4 25 км 1/1 570 м
[Cu Sc]
+26.5 +20.0 68 +33 +44 очень
душно
1014.9 1014.4
12 17.09 ЮВ 5 25 км 1/1 570 м
[Cu med, cong]
+25.4 +20.6 75 +32 +34 очень
душно
1013.9 1013.4
15 17.09 ЮВ 5 20 км 4/4 540 м
[Cu Sc]
+24.8 +20.9 79 +31 +31 очень
душно
1015.0 1014.5
18 17.09 Ю 6 20 км 4/4 540 м
[Cu Sc]
+24.2 +21.0 82 +30 +30 очень
душно
1016.2 1015.7 +28.0
00 18.09 Ю 3 5000 м слаб. ливневой дождь 10/10 300 м
[Cu Sc]
+22.1 +20.6 91 +28 +28 душно 1015.1 1014.6 2
03 18.09 штиль 0 8000 м в посл. час ливневой дождь 10/10 450 м
[Cu Sc]
+22.3 +20.5 90 +29 +29 очень
душно
1016.0 1015.5 1
06 18.09 В 4 15 км осадки на расстоянии {ливн. осадки} 9/9 500 м
[Cu Sc]
+26.6 +21.5 74 +34 +35 очень
душно
1017.0 1016.5 +21.6 5
09 18.09 В 7 15 км осадки на расстоянии 8/8 480 м
[Cu Sc]
+27.7 +21.8 70 +36 +37 очень
душно
1015.5 1015.0
12 18.09 В 4 25 км 3/3 570 м
[Cu Sc]
+27.4 +21.1 69 +35 +37 очень
душно
1014.7 1014.2
15 18.09 В 4 20 км 4/4 540 м
[Cu Sc]
+24.6 +20.4 77 +30 +30 очень
душно
1016.3 1015.8
18 18.09 ЮВ 4 20 км 3/3 540 м
[Cu med, cong]
+24.3 +19.5 75 +30 +30 очень
душно
1017.9 1017.4 +28.0
00 19.09 ЮВ 3 20 км 4/4 540 м
[Cu Sc]
+23.7 +19.4 77 +29 +29 душно 1016.2 1015.7
03 19.09 ЮВ 5 25 км 5/5 570 м
[Cu Sc]
+24.1 +18.8 72 +29 +29 душно 1017.4 1016.9
06 19.09 ЮВ 5 25 км 1/1 540 м
[Cu Sc]
+26.2 +19.8 68 +32 +39 очень
душно
1018.1 1017.6 +23.2
09 19.09 ЮВ 5 25 км 1/1 600 м
[Cu hum]
+28.9 +19.7 58 +35 +44 очень
душно
1016.5 1016.0
12 19.09 ЮВ 4 25 км 3/3 600 м
[Cu med, cong]
+25.9 +19.3 67 +31 +34 очень
душно
1015.7 1015.2
15 19.09 ЮВ 5 20 км 4/4 540 м
[Cu Sc]
+24.6 +19.2 72 +30 +30 очень
душно
1016.9 1016.4
18 19.09 ЮВ 4 20 км 4/4 540 м
[Cu Sc]
+24.4 +19.2 73 +29 +29 душно 1018.2 1017.7 +29.1
00 20.09 ЮВ 4 20 км 1/1 540 м
[Cu med, cong]
+23.7 +18.5 73 +28 +28 душно 1016.3 1015.8
03 20.09 ЮВ 5 25 км 5/5 540 м
[Cu Sc Ci sp]
+24.0 +18.2 70 +28 +29 душно 1017.7 1017.2
06 20.09 ЮВ 6 25 км 4/3 570 м
[Cu Sc Ci sp]
+25.1 +17.3 62 +29 +33 душно 1018.2 1017.7 +23.5
09 20.09 ЮВ 5 25 км 4/1 570 м
[Cu Sc Ci sp]
+26.0 +18.1 62 +31 +39 очень
душно
1016.0 1015.5
12 20.09 ЮВ 6 25 км 4/1 570 м
[Cu Sc Ci sp]
+25.6 +17.9 62 +30 +32 душно 1015.2 1014.7
15 20.09 ЮВ 7 10 км осадки на расстоянии 8/8 480 м
[Cu Sc]
+23.4 +20.5 84 +31 +31 очень
душно
1016.3 1015.8

 

Местоположение метеостанции Сент-Брендон (Маврикий): широта -16.45 долгота 59.62 высота над уровнем моря 4 м.

В архиве по умолчанию представлена погода в Сент-Брендоне за последнюю неделю. Архивные данные за месяц целиком и за предыдущие месяцы, начиная с января 2011 года, Вы можете получить, выбрав интересующий диапазон дат из раскрывающегося списка и нажав кнопку "Ввод!".


*Определитесь, кто Вы:
робот инопланетянин человек

Внимание! Время в таблицах - всемирное. Для получения местного времени необходимо прибавить поправку, которая равна 4 ч.

Смотрите также архив погоды в соседних городах и на ближайших метеорологических станциях:

Погода в Вакоасе (Маврикий) (483 км)
Погода в Аэропорту сэра С. Рамгулама (Маврикий) (488 км)
Погода на Родригесе (Маврикий) (539 км)
Погода в Аэропорту сэра Г. Дюваля (Маврикий) (540 км)
Погода в Серже-Фролоу (Реюньон) (552 км)
Погода в Сен-Дени (Реюньон) (655 км)
Погода на Агалега (Маврикий) (738 км)
Погода в Анталахе (Мадагаскар) (1018 км)
Погода в Самбаве (Мадагаскар) (1042 км)
Погода на Нуси Бураха (Мадагаскар) (1046 км)

Пояснения к столбцам:

Ветер - указаны скорость ветра в м/с - средняя за 10 мин, порывы в срок и между сроками (в фигурных скобках) и направление, откуда дует ветер: С - северный, СВ - северо-восточный, В - восточный, ЮВ - юго-восточный, Ю - южный, ЮЗ - юго-западный, З - западный, СЗ - северо-западный.
Видимость - горизонтальная дальность видимости в метрах или километрах. При видимости от 1 до 10 км при отсутствии осадков обычно наблюдается дымка, при ухудшении видимости до 1 км и менее - туман. В сухую погоду видимость может ухудшаться дымом, пылью или мглою.
Явления - указаны атмосферные явления, наблюдавшиеся в срок или в последний час перед сроком; фигурными скобками обозначены явления, наблюдавшиеся между сроками (за 1-3 часа до срока); квадратными скобками обозначены град или гололедные отложения с указанием их диаметра в мм.
Облачность - указаны через наклонную черту общая и нижняя облачность в баллах и высота нижней границы облаков в метрах; квадратными скобками обозначены формы облаков: Ci - перистые, Cs - перисто-слоистые, Cc - перисто-кучевые, Ac - высококучевые, As - высокослоистые, Sc - слоисто-кучевые, Ns - слоисто-дождевые, Cu - кучевые, Cb - кучево-дождевые. Подробнее классификацию облаков см. в Атласе облаков (PDF).
T - Температура воздуха - температура, измеренная на высоте 2 м над землей.
Td - Температура точки росы - температура, при понижении до которой содержащийся в воздухе водяной пар достигнет насыщения.
f - Относительная влажность воздуха - влажноcть воздуха, измеренная на высоте 2 м над землей.
Te - Эффективная температура - температура, которую ощущает одетый по сезону человек в тени. Характеристика душности погоды. При расчете учитывается влияние влажности воздуха и скорости ветра на теплоощущения человека.
Tes - Эффективная температура на солнце - температура, которую ощущает человек, с поправкой на солнечный нагрев. Характеристика знойности погоды. Зависит от высоты солнца над горизонтом, облачности и скорости ветра. Ночью, в пасмурную погоду, а также при ветре 12 м/с и более поправка равна нулю.
P - Атмосферное давление - приведенное к уровню моря атмосферное давление.
Po - Атмосферное давление - измеренное на уровне метеостанции атмосферное давление.
Tmin - Минимальная температура - минимум температуры воздуха на высоте 2 м над землей.
Tmax - Максимальная температура - максимум температуры воздуха на высоте 2 м над землей.
R - Количество осадков - Количество выпавших осадков за период времени, мм. При наведении курсора мыши на число - период времени, за который выпало указанное количество осадков.
R24 - Количество осадков - Количество выпавших осадков за 24 часа, мм.
S - Снежный покров - Высота снежного покрова, см. При наведении курсора мыши на число - состояние снежного покрова и степень покрытия местности в баллах.